Regional Weather Roundup
Issued by NWS Cleveland, OH

Home | Current Version | Previous Version | Graphics & Text | Print | Product List | Glossary On
Versions: 1 2 3 4 5 6 7 8 9 10 11 12 13 14 15 16 17 18 19 20 21 22 23 24 25 26 27 28 29 30 31 32 33 34 35 36 37 38 39 40 41 42 43 44 45 46 47 48 49 50
000
ASUS41 KCLE 210910
RWRCLE
OHIO REGIONAL WEATHER ROUNDUP
NATIONAL WEATHER SERVICE WILMINGTON, OH
500 AM EDT THU AUG 21 2014

NOTE: "FAIR" INDICATES FEW OR NO CLOUDS BELOW 12,000 FEET WITH NO
SIGNIFICANT WEATHER AND/OR OBSTRUCTIONS TO VISIBILITY.

OHZ001>008-015>018-024>027-034-035-043-044-211000-
   NORTHWEST OHIO

CITY           SKY/WX    TMP DP  RH WIND       PRES   REMARKS
DEFIANCE       MOCLDY    70  67  90 CALM      29.98R
FINDLAY        PTCLDY    70  66  87 SW5       29.97S
TOLEDO EXPRESS PTCLDY    68  66  93 W5        29.96R
TOLEDO METCALF CLEAR     68  64  87 SW5       29.97R
LIMA           MOCLDY    71  66  84 SW8       30.00S
$$

OHZ009>014-019>023-028>033-038-089-211000-
   NORTHEAST OHIO

CITY           SKY/WX    TMP DP  RH WIND       PRES   REMARKS
CLE-HOPKINS    PTCLDY    67  64  90 SW6       29.99R
CLE-LAKEFRONT  CLEAR     71  65  81 S5        29.95S
CUY CO. ARPT   NOT AVBL
LORAIN-ELYRIA  CLEAR     68  63  84 SW6       29.98R
ASHTABULA      PTCLDY    63  62  97 CALM      29.98R FOG
AKRON-CANTON   CLEAR     67  63  87 SW5       29.99F
WOOSTER        CLEAR     63  60  90 W7        30.01R
MANSFIELD      CLEAR     69  66  90 SW5       30.01R
YOUNGSTOWN     MOCLDY    67  65  93 SW3       29.99S
$$

OHZ042-051>053-060>062-070>072-077>081-211000-
  SOUTHWEST OHIO

CITY           SKY/WX    TMP DP  RH WIND       PRES   REMARKS
CINC-COVINGTON MOCLDY    69  67  93 S5        30.03F FOG
CINC-LUNKEN    PTCLDY    68  67  96 CALM      30.03F
HAMILTON       MOCLDY    69  68  96 CALM      30.03F
DAYTON         MOCLDY    70  68  93 SW7       30.04S
WRIGHT-PAT AFB MOCLDY    70  68  95 SW5       30.02F
DAYTON GENERAL PTCLDY    70  68  93 S3        30.03S
WILMINGTON     CLEAR     68  66  93 SW7       30.04S
$$

OHZ036-037-039>041-045>050-054>059-063>069-073>076-082>088-211000-
  CENTRAL AND SOUTHEAST OHIO

CITY           SKY/WX    TMP DP  RH WIND       PRES   REMARKS
COLUMBUS       CLEAR     72  66  81 S3        30.01S
OSU AIRPORT    CLEAR     69  66  90 SW5       30.01F
BOLTON FIELD   CLEAR     67  67  98 SW3       30.02S FOG
RICKENBACK AFB CLEAR     66  61  86 S3        30.02R HAZE
NEWARK         CLEAR     66  64  93 CALM      30.01S
MARION         PTCLDY    69  65  86 SW6       30.01R
LANCASTER      CLEAR     67  64  90 CALM      30.03R
ZANESVILLE     CLEAR     66  64  93 SW3       30.02R
NEW PHILLY     FOG       64  64 100 E3        30.01R VSB 1/2
$$



USA.gov is the U.S. government's official web portal to all federal, state and local government web resources and services.